Location: Neu-Ulm
(48.3873°N, 10.0192°E)
Time: 02:06:49
(UTC+01:00)

ISS - Pass Details

Date: 12 November 2017
Orbit: 402 x 407 km, 51.6° (Epoch: 21 November)

Event Time Altitude Azimuth Distance (km) Brightness Sun altitude
Exits shadow 05:52:32 34° 298° (WNW) 692 -3.2 -15.1°
Maximum altitude 05:53:49 78° 19° (NNE) 415 -3.9 -14.8°
Drops below altitude 10° 05:57:05 10° 107° (ESE) 1,453 0.4 -14.3°
Sets 05:59:09 0° 109° (ESE) 2,311 1.9 -14.0°
